TimeEEST,TemperatureF,Dew PointF,Humidity,Sea Level PressureIn,VisibilityMPH,Wind Direction,Wind SpeedMPH,Gust SpeedMPH,PrecipitationIn,Events,Conditions,WindDirDegrees,DateUTC
12:50 AM,64.4,62.6,94,30.06,6.2,Calm,Calm,-,N/A,,Partly Cloudy,0,2012-10-05 21:50:00
2:50 AM,68.0,64.4,88,30.06,6.2,NE,4.6,-,N/A,,Partly Cloudy,40,2012-10-05 23:50:00
3:00 AM,68,64,83,30.09,6,NE,4.6,,,,Scattered Clouds,40,2012-10-06 00:00:00
5:50 AM,66.2,62.6,88,30.06,6.2,East,4.6,-,N/A,,Partly Cloudy,80,2012-10-06 02:50:00
7:50 AM,66.2,60.8,83,30.09,6.2,East,4.6,-,N/A,,Partly Cloudy,80,2012-10-06 04:50:00
8:20 AM,66.2,62.6,88,30.09,6.2,Calm,Calm,-,N/A,,Partly Cloudy,0,2012-10-06 05:20:00
8:50 AM,69.8,62.6,78,30.09,6.2,East,6.9,-,N/A,,Partly Cloudy,80,2012-10-06 05:50:00
9:00 AM,70,62,69,30.11,6,East,6.9,,,,Scattered Clouds,80,2012-10-06 06:00:00
9:20 AM,71.6,62.6,73,30.09,6.2,NE,6.9,-,N/A,,Partly Cloudy,40,2012-10-06 06:20:00
9:50 AM,73.4,62.6,69,30.12,6.2,NE,6.9,-,N/A,,Partly Cloudy,40,2012-10-06 06:50:00
10:20 AM,75.2,60.8,61,30.12,6.2,East,5.8,-,N/A,,Partly Cloudy,80,2012-10-06 07:20:00
10:50 AM,77.0,60.8,57,30.12,6.2,Calm,Calm,-,N/A,,Partly Cloudy,0,2012-10-06 07:50:00
11:20 AM,77.0,55.4,47,30.12,6.2,Calm,Calm,-,N/A,,Partly Cloudy,0,2012-10-06 08:20:00
11:50 AM,78.8,55.4,44,30.12,6.2,Calm,Calm,-,N/A,,Partly Cloudy,0,2012-10-06 08:50:00
12:20 PM,80.6,53.6,39,30.12,6.2,Calm,Calm,-,N/A,,Partly Cloudy,0,2012-10-06 09:20:00
12:50 PM,84.2,55.4,37,30.09,-9999.0,Calm,Calm,-,N/A,,Clear,0,2012-10-06 09:50:00
1:20 PM,84.2,51.8,33,30.09,-9999.0,Calm,Calm,-,N/A,,Clear,0,2012-10-06 10:20:00
1:50 PM,82.4,57.2,42,30.09,-9999.0,WNW,6.9,-,N/A,,Clear,290,2012-10-06 10:50:00
2:20 PM,80.6,62.6,54,30.09,-9999.0,West,8.1,-,N/A,,Clear,270,2012-10-06 11:20:00
2:50 PM,82.4,62.6,51,30.09,-9999.0,WNW,9.2,-,N/A,,Clear,300,2012-10-06 11:50:00
3:00 PM,82,62,41,30.09,6,WNW,9.2,,,,,300,2012-10-06 12:00:00
3:20 PM,82.4,60.8,48,30.06,-9999.0,WNW,10.4,-,N/A,,Clear,290,2012-10-06 12:20:00
3:50 PM,82.4,64.4,54,30.06,-9999.0,WNW,10.4,-,N/A,,Clear,290,2012-10-06 12:50:00
4:20 PM,80.6,60.8,51,30.06,-9999.0,WNW,11.5,-,N/A,,Clear,300,2012-10-06 13:20:00
4:50 PM,80.6,62.6,54,30.06,-9999.0,WNW,11.5,-,N/A,,Clear,300,2012-10-06 13:50:00
5:20 PM,78.8,62.6,57,30.06,-9999.0,NW,10.4,-,N/A,,Clear,310,2012-10-06 14:20:00
5:50 PM,78.8,62.6,57,30.06,-9999.0,NW,9.2,-,N/A,,Clear,310,2012-10-06 14:50:00
6:20 PM,77.0,64.4,65,30.06,-9999.0,NW,6.9,-,N/A,,Clear,320,2012-10-06 15:20:00
6:50 PM,75.2,62.6,65,30.06,-9999.0,WNW,6.9,-,N/A,,Clear,300,2012-10-06 15:50:00
7:20 PM,73.4,62.6,69,30.06,-9999.0,West,6.9,-,N/A,,Clear,280,2012-10-06 16:20:00
7:50 PM,73.4,64.4,73,30.06,-9999.0,West,6.9,-,N/A,,Clear,280,2012-10-06 16:50:00
8:20 PM,73.4,62.6,69,30.06,-9999.0,West,6.9,-,N/A,,Clear,280,2012-10-06 17:20:00
8:50 PM,71.6,62.6,73,30.06,-9999.0,West,5.8,-,N/A,,Clear,270,2012-10-06 17:50:00
9:00 PM,72,63,67,30.09,6,West,5.8,,,,,270,2012-10-06 18:00:00
9:50 PM,73.4,62.6,69,30.09,-9999.0,Calm,Calm,-,N/A,,Clear,0,2012-10-06 18:50:00
10:50 PM,69.8,64.4,83,30.06,-9999.0,Calm,Calm,-,N/A,,Clear,0,2012-10-06 19:50:00
11:50 PM,66.2,62.6,88,30.09,-9999.0,Calm,Calm,-,N/A,,Clear,0,2012-10-06 20:50:00